TIME,DELAY(SENSOR),PRES,OXYGEN,RAWTEMP,T(OPTODE),TCPHASE,FLUOR,BETA(BETA700),BETA(BETA412),BETA(BETA440),CDOM,C(CSC),ED(ED412.40),ED(ED444.00),ED(ED489.70),ED(ED554.30),LU(LU411.80),LU(LU443.40),LU(LU489.60),LU(LU554.10),COMP,TILTX,TILTY,CHECK
1372132793,5809,837.4099731445312000,46.9229698181152340,663.7805786132812000,4.5034279823303220,54.0289192199707000,53,98,85,79,78,15494,2147755456,2147424246,2148010605,2147875538,2147638848,2147054235,2148258139,2147196187,57,4,13,6829
1372136390,5807,954.8400268554688000,54.8247985839843750,674.3555297851562000,4.1542129516601560,53.0719909667968750,52,98,86,78,80,15496,2147754358,2147424365,2148009508,2147874733,2147642742,2147059117,2148262116,2147199497,2369,3,13,18558
1372139990,5806,989.5800170898438000,56.5865097045898440,678.6602172851562000,4.0116920471191410,52.9022598266601560,53,98,89,78,80,15498,2147754569,2147425216,2148012653,2147873051,2147644571,2147053568,2148262089,2147200585,1476,3,13,39971
1372143590,5808,1009.5300292968750000,56.4966888427734400,678.6088867187500000,4.0133910179138180,52.9137611389160160,52,97,86,78,78,15500,2147759762,2147426386,2148012352,2147873197,2147643318,2147056173,2148262372,2147196982,130,4,13,33861
1372147190,5807,1002.7399902343750000,55.9507713317871100,676.2030029296875000,4.0930690765380860,52.9495391845703100,52,99,87,79,79,15499,2147757184,2147424502,2148010459,2147872146,2147643209,2147053156,2148259136,2147195940,1793,3,13,14267
1372150790,5810,970.0999755859375000,55.1985588073730500,674.3372802734375000,4.1548118591308590,53.0250015258789060,52,98,87,79,78,14928,2147758317,2147424987,2148012269,2147875154,2147636105,2147058560,2148257920,2147197485,3566,4,13,28278
1372154390,5811,853.0700073242188000,45.9100189208984400,665.1398925781250000,4.4586119651794430,54.1870498657226560,53,100,89,78,81,15497,2147751506,2147424557,2148008886,2147872713,2147640941,2147055716,2148258240,2147197750,2811,3,13,56578
1372157990,5812,803.7399902343750000,44.6842384338378900,660.7227172851562000,4.6041760444641110,54.3128700256347660,53,99,84,79,79,15491,2147756388,2147425581,2148010468,2147870738,2147639158,2147058386,2148253046,2147199158,64,4,13,51307
1372161590,5809,798.3900146484375000,44.7721900939941400,661.6798095703125000,4.5726552009582520,54.3076705932617200,52,97,152,78,79,15495,2147754944,2147426788,2148008621,2147870829,2147639588,2147060214,2148257307,2147200850,2954,4,13,62759
1372165190,5808,805.5300292968750000,46.1014404296875000,664.2921142578125000,4.4865679740905760,54.1505088806152340,52,100,114,78,79,15495,2147756004,2147425078,2148007881,2147871177,2147641362,2147053275,2148257362,2147194816,793,4,13,59643
1372168790,5811,811.7500000000000000,45.9229202270507800,663.9797973632812000,4.4968619346618650,54.1684188842773440,52,99,89,79,79,15492,2147754258,2147425618,2148009837,2147872731,2147641417,2147059730,2148259565,2147196635,559,4,13,35224
1372172390,5807,818.0300292968750000,46.1992607116699200,662.5847167968750000,4.5428409576416020,54.1141510009765600,53,101,85,79,79,15492,2147756708,2147425453,2148006884,2147872411,2147640347,2147059611,2148250121,2147198034,104,4,13,52166
1372175990,5809,833.5100097656250000,46.6643104553222660,666.6541748046875000,4.4086589813232420,54.0975112915039060,53,99,86,79,80,15494,2147757595,2147423744,2148011401,2147874093,2147643584,2147061613,2148254976,2147200429,207,4,13,6230
1372179590,5809,838.1300048828125000,46.9413604736328100,666.0720825195312000,4.4278621673583980,54.0488281250000000,52,99,86,78,79,15495,2147755364,2147424521,2148010624,2147873289,2147638564,2147058596,2148258633,2147195419,3437,4,13,28139
1372183190,5810,846.7999877929688000,46.3662185668945300,666.5712280273438000,4.4113960266113280,54.1374092102050800,53,100,89,79,79,15489,2147752237,2147426157,2148012763,2147873965,2147641060,2147054976,2148256237,2147195803,59,4,13,58648
1372186790,5760,866.3200073242188000,46.2371215820312500,667.5822753906250000,4.3780307769775390,54.1667785644531250,52,98,83,79,79,15491,2147754057,2147422518,2148008896,2147872045,2147641856,2147056064,2148255661,2147197357,68,4,13,45359
1372190390,5804,867.7199707031250000,46.0639801025390600,667.1220092773438000,4.3932209014892580,54.1894111633300800,53,98,88,78,80,15491,2147754432,2147424585,2148011181,2147871990,2147643190,2147056137,2148259373,2147199552,3525,4,13,31610
1372193990,5809,869.4500122070312000,46.2427711486816400,667.0045776367188000,4.3970952033996580,54.1606101989746100,52,105,86,79,80,15491,2147753837,2147426669,2148008128,2147872448,2147642203,2147050870,2148255286,2147195675,3194,3,13,7830
1372197590,5811,895.6099853515625000,47.0109405517578100,669.6635742187500000,4.3093109130859375,54.0826988220214840,52,96,88,78,79,15491,2147752694,2147423689,2148013787,2147872219,2147641097,2147058816,2148258651,2147197860,3467,3,13,20456
1372201190,5809,894.8900146484375000,47.5885581970214840,669.4797973632812000,4.3153800964355470,54.0018806457519500,52,98,83,78,79,15483,2147757577,2147425051,2148012425,2147872905,2147643428,2147060598,2148257316,2147197220,20,4,13,19329
1372204790,5808,892.7500000000000000,47.3324203491210940,669.6098022460938000,4.3110871315002440,54.0412902832031250,52,98,86,79,79,15490,2147753737,2147425225,2148011392,2147875108,2147641645,2147051584,2148255899,2147196032,397,3,13,11017
1372208390,5811,914.7399902343750000,51.7946395874023440,671.2388916015625000,4.2572631835937500,53.4410591125488300,53,97,88,79,79,15491,2147757449,2147425334,2148009225,2147874587,2147641234,2147052278,2148262665,2147196973,81,4,13,22393
1372211990,5807,915.2899780273438000,52.2315902709960940,671.1821289062500000,4.2591419219970700,53.3800392150878900,51,99,89,79,79,15492,2147756900,2147426441,2148012864,2147873088,2147640978,2147057225,2148263314,2147200027,3569,3,13,10875
1372215590,5810,916.4799804687500000,53.8532905578613300,671.3214721679688000,4.2545318603515625,53.1625213623046900,52,98,84,79,79,15490,2147754368,2147425627,2148009645,2147872786,2147639670,2147053650,2148258496,2147197805,3532,3,13,63019
1372219190,5808,945.4400024414062000,54.5460510253906250,674.3696289062500000,4.1537442207336430,53.1111488342285160,52,97,86,78,79,15491,2147753956,2147425956,2148011163,2147871981,2147640219,2147063597,2148256667,2147195337,3328,3,13,56835
1372222790,5805,950.7199707031250000,54.5930213928222660,673.7479858398438000,4.1743068695068360,53.0986289978027340,52,98,86,79,79,15490,2147752685,2147427428,2148011163,2147870573,2147637860,2147055771,2148261714,2147197961,323,4,13,48227
1372226390,5804,948.9000244140625000,54.3660507202148440,673.7462768554688000,4.1743640899658200,53.1240806579589840,52,97,85,77,80,15491,2147756141,2147423917,2148009426,2147869668,2147643474,2147061184,2148256941,2147196452,527,4,13,61802
1372229990,5807,972.5599975585938000,54.6454582214355500,675.9614257812500000,4.1010680198669430,53.1213798522949200,52,97,87,79,79,15495,2147754148,2147425161,2148008950,2147874194,2147645376,2147057910,2148257883,2147199149,251,4,13,56369
1372233590,5805,978.7000122070312000,55.0304183959960940,675.5778198242188000,4.1137638092041020,53.0661315917968750,52,98,86,79,79,15490,2147756114,2147425773,2148014317,2147873490,2147641170,2147054875,2148261878,2147193810,3493,4,13,57966
1372237190,5809,980.2199707031250000,54.7610816955566400,675.0972900390625000,4.1296668052673340,53.0901107788085940,52,98,84,78,81,15490,2147753627,2147426834,2148007963,2147875968,2147640795,2147055972,2148264896,2147196982,411,4,13,35904
1372240790,5808,976.9400024414062000,54.1403999328613300,674.9835205078125000,4.1334319114685060,53.1720314025878900,52,97,86,78,81,15490,2147761078,2147425088,2148012233,2147871213,2147637110,2147053476,2148256201,2147197165,327,4,13,2997
1372244390,5808,977.8499755859375000,54.3033981323242200,674.0742187500000000,4.1635189056396480,53.1395301818847660,52,98,88,77,80,15489,2147757302,2147425901,2148010258,2147874523,2147637385,2147055643,2148257910,2147199049,41,4,13,8143
1372247990,5809,971.9799804687500000,54.4226799011230500,676.1961059570312000,4.0932998657226560,53.1535110473632800,52,97,89,80,80,15485,2147754752,2147423881,2148012370,2147872667,2147642313,2147055268,2148262043,2147195373,3506,4,13,44944
1372251590,5810,970.2600097656250000,54.7788314819335940,676.8585205078125000,4.0713667869567870,53.1125984191894500,52,100,87,77,79,15486,2147757613,2147424164,2148011062,2147872932,2147639040,2147058944,2148261787,2147196525,3215,4,13,38418
1372255190,5812,970.8900146484375000,54.9491386413574200,677.8378295898438000,4.0389370918273930,53.1043014526367200,52,97,87,78,79,15489,2147756571,2147425334,2148010678,2147872996,2147642066,2147058304,2148262262,2147199149,3236,3,13,59344
1372258790,5807,969.5999755859375000,54.8625488281250000,678.1898193359375000,4.0272750854492190,53.1207809448242200,51,96,86,78,79,15489,2147757997,2147421504,2148012160,2147875282,2147639204,2147058166,2148260754,2147195035,124,4,13,19349
1372262390,5812,970.7399902343750000,55.4523391723632800,678.2194824218750000,4.0262908935546875,53.0396308898925800,52,95,87,78,78,15490,2147758107,2147425270,2148010249,2147870747,2147641910,2147057645,2148261074,2147196845,179,4,13,7574
1372265990,5808,969.3900146484375000,55.4371910095214840,677.5020141601562000,4.0500559806823730,53.0375785827636700,52,97,85,78,78,15491,2147758948,2147424521,2148012461,2147874029,2147641005,2147053686,2148262875,2147200301,730,4,13,44692
1372269590,5809,975.0700073242188000,54.8793106079101560,677.9887084960938000,4.0339369773864750,53.1164512634277340,52,97,84,78,78,15490,2147756050,2147424960,2148011840,2147875474,2147639725,2147057060,2148259273,2147192018,140,4,13,62715
1372273190,5809,976.2700195312500000,54.9751396179199200,676.9777832031250000,4.0674190521240230,53.0908813476562500,52,96,87,80,80,15489,2147755035,2147424082,2148008649,2147874395,2147640804,2147055625,2148260178,2147197842,102,4,13,3815
1372276790,5809,977.9600219726562000,54.7290306091308600,676.5430297851562000,4.0818119049072270,53.1130790710449200,52,97,87,79,79,15489,2147756690,2147422134,2148011072,2147873389,2147642468,2147053897,2148257792,2147197970,3271,4,13,12765
1372277455,5809,977.7700195312500000,54.6714706420898440,676.5283813476562000,4.0822978019714355,53.1259918212890600,52,96,88,78,79,15491,2147756352,2147425773,2148011520,2147876288,2147643318,2147052928,2148259849,2147196818,3573,3,13,41812
